This is the latest recevied weather packets stored in our database for station/object KA1JKB. If no packets are shown the sender has not sent any weather packets the latest 10 day(s).
| Time | Temp. | Humidity | Pressure | Rain* | Wind** | Luminosity | Snow |
|---|---|---|---|---|---|---|---|
| 1788047013 | 21.67° C | 86% | 1016.9 hPa | 0 mm | - | 7 W/m² | - |
| 1788046708 | 21.67° C | 86% | 1016.9 hPa | 0 mm | - | 14 W/m² | - |
| 1788046408 | 22.22° C | 84% | 1017 hPa | 0 mm | - | 21 W/m² | - |
| 1788046106 | 22.22° C | 84% | 1017.3 hPa | 0 mm | - | 22 W/m² | - |
| 1788045801 | 22.22° C | 83% | 1017.4 hPa | 0 mm | - | 25 W/m² | - |
| 1788045497 | 22.78° C | 83% | 1017.3 hPa | 0 mm | - | 16 W/m² | - |
| 1788045192 | 23.33° C | 80% | 1017.6 hPa | 0 mm | - | 19 W/m² | - |
| 1788044887 | 23.33° C | 79% | 1017.6 hPa | 0 mm | - | 31 W/m² | - |
| 1788044581 | 23.33° C | 79% | 1017.5 hPa | 0 mm | - | 49 W/m² | - |
| 1788044279 | 23.33° C | 78% | 1017.5 hPa | 0 mm | - | 58 W/m² | - |
| 1788043976 | 23.33° C | 77% | 1017.4 hPa | 0 mm | - | 69 W/m² | - |
| 1788043671 | 23.33° C | 76% | 1017.3 hPa | 0 mm | - | 70 W/m² | - |
| 1788043366 | 23.33° C | 78% | 1017.1 hPa | 0 mm | - | 73 W/m² | - |
| 1788043065 | 23.89° C | 78% | 1017.5 hPa | 0 mm | - | 67 W/m² | - |
| 1788042761 | 23.89° C | 76% | 1017.4 hPa | 0 mm | - | 95 W/m² | - |
| 1788042460 | 23.33° C | 77% | 1017.5 hPa | 0 mm | - | 109 W/m² | - |
| 1788042155 | 23.89° C | 76% | 1017.6 hPa | 0 mm | - | 94 W/m² | - |
| 1788041851 | 23.89° C | 75% | 1017.7 hPa | 0 mm | - | 78 W/m² | - |
| 1788041552 | 23.89° C | 74% | 1017.6 hPa | 0 mm | - | 70 W/m² | - |
| 1788041246 | 23.89° C | 74% | 1017.5 hPa | 0 mm | - | 87 W/m² | - |
| 1788040945 | 24.44° C | 74% | 1017.7 hPa | 0 mm | - | 95 W/m² | - |
| 1788040644 | 24.44° C | 74% | 1017.6 hPa | 0 mm | - | 105 W/m² | - |
| 1788040339 | 24.44° C | 73% | 1017.7 hPa | 0 mm | - | 159 W/m² | - |
| 1788040039 | 24.44° C | 72% | 1017.6 hPa | 0 mm | - | 165 W/m² | - |
| 1788039735 | 24.44° C | 72% | 1017.9 hPa | 0 mm | - | 173 W/m² | - |
* Rain latest hour (hover to see other rain measurements)
** Current wind speed in m/s (hover to see current wind gust speed)